STARLINK-11188, 60722

Orbit data source: Space-Track

STARLINK-11188, 60722 is a payload satellite owned by SpaceX/Seattle (US) in LEO that was launched on Wed, 28 Aug 2024 UTC via an FALCON 9 launch vehicle from the Air Force Eastern Test Range (AFETR). Payload-class satellites include a variety of spacecraft equipped with specific instruments for various scientific and technological missions. These include communications satellites like Starlink; space stations such as the ISS; scientific satellites like the Hubble; Earth observation satellites from companies like Planet Labs, Umbra, and HawkEye 360; GPS; miniature CubeSats for education and research; and military/defense satellites.

Loading next visibility...
Identifier
60722, 2024-152C
Orbit
LEO
Last TLE update
20 hours ago
Origin
Manufacturer
SpaceX/Seattle
Mission
Operational Commercial Communications
Bus & Motor
STARLINK V2M, Unknown motor
Mass
730 kg wet, ~700 kg dry
Launch date (UTC)
2024-08-28 (10 months ago)
Launch vehicle
FALCON 9
Launch site
Air Force Eastern Test Range (AFETR)
Object type
Payload
Rocket body
Debris
Shape & HBR
Box + 2 Pan, 29 m
Radar Cross Section
36.964 m², Large (>1 m²)

Expand to show TLE details & history

TLE from 20 hours ago
0 STARLINK-11188
1 60722U 24152C   25181.56766487  .00001755  00000-0  19345-4 0  9991
2 60722  53.1590 279.3352 0000948  79.2061 280.9064 15.69703979 49355
Epoch: 2025-06-30T13:37Z
TLE epoch observation values (Epoch: 2025-06-30T13:37:26.244Z)
Latitude
-0°
Longitude
156.10024°
Altitude
360.538 km
Speed
7.694 km/s
True Right ascension
18h 37m 20s
True Declination
0° 00' 00"
Sunlit
Object was in full shadow at epoch
Visualization orbit readout
Latitude
38.31952°
Longitude
-171.95454°
Altitude
362.42 km
Speed
7.697 km/s
Apparent Right ascension
16h 49m 30s
Apparent Declination
5° 39' 35"
Sunlit
Object is in full shadow
Visualization observer readout
Local Sidereal Time
21:20:30
Azimuth
259.775° W
Elevation
20.626°
Doppler factor
1
Orbital elements
Apogee altitude
360.644 km
Perigee altitude
359.366 km
Semi-major axis
6,738.142 km
Eccentricity
0.00009
Inclination
53.159°
RAAN
279.3352°
Arg. of periapsis
79.2061°
True anomaly
Unknown
Mean anomaly
280.9064°
Eccentric anomaly
Unknown
Mean motion
3.92404 °/min
Orbital period
91.74 mins
BSTAR
0.000019345
Loading maneuver chart data...
Loading SW <> Apogee altitude chart data...
Loading historical data...
Loading historical data...
Loading historical data...
Loading historical data...
Loading historical data...
Loading historical data...
Loading historical data...

STARLINK-11188 Visibility forecast

Observer location: undefined°, undefined°

Span
Click to sort rows by Start time (UTC) header in descending order
Start Az.
Max El. time (UTC)
Max El. Az.
Max El.
End time (UTC)
End Az.
4 mins2025-07-01 09:42:11.042Z259.061° W2025-07-01 09:44:11.042Z344.871° N33.975°2025-07-01 09:46:11.042Z35.371° NE
4 mins2025-07-01 16:07:11.042Z302.056° NW2025-07-01 16:08:11.042Z281.413° WNW40.9°2025-07-01 16:11:11.042Z137.125° SSE
4 mins2025-07-02 08:36:11.042Z203.222° SW2025-07-02 08:37:11.042Z164.927° S37.916°2025-07-02 08:40:11.042Z58.777° ENE
|